RH
60 58 59 60 57 58 68 68 69 63 59 60 53 49 50 54 59 61 53 46 46 49
70 70 66 66 65 63 63 67 71 71 67 63 62 52 50 53 60 59 55 50 49 50
63 62 64 69 67 68 67 68 69 71 71 68 64 64 54 54 60 59 56 52 48 50
65 63 63 66 70 69 70 66 63 66 68 69 71 72 67 59 61 60 57 54 47 48
69 66 63 62 65 68 68 63 65 66 66 67 72 81 77 63 60 58 58 57 49 47
77 73 68 66 68 68 69 69 68 69 69 71 81 89 84 74 64 59 61 58 53 51
75 75 69 66 65 66 68 68 66 66 74 82 88 92 88 81 72 63 64 61 58 54
76 71 70 75 81 80 78 79 76 74 80 90 93 95 98 87 79 71 70 66 63 61
75 76 73 79 73 81 83 83 81 80 84 86 86 96 93 94 89 73 75 72 67 67
74 79 83 84 78 72 78 77 74 77 75 78 93 93 92 99 93 78 73 76 72 74
79 79 80 83 83 83 83 87 93 95 88 96 98 99 94 99 94 85 80 80 80 77
79 82 82 81 84 89 88 89 96 97 92 93 97 93 96 99 94 90 86 84 82 84
59 69 78 83 85 87 88 86 99 95 96 96 97 96 97 98 99 96 91 93 89 90
51 51 53 63 75 82 85 86 88 92 91 94 98 98 99 99 97 98 97 95 95 97